| time (UTC) | temp F | wind direction | speed MPH | gust MPH | rain 1hr in | rain 24hr in | rain mn in | humidity % | barometer mb |
| 20260506073016 | 36 | 315 | 3.0 | 5.0 | 0.00 | 0.00 | 0.00 | 67 | 1015.2 |
| 20260506043017 | 38 | 315 | 5.0 | 8.0 | 0.00 | 0.00 | 0.00 | 61 | 1014.7 |
| 20260506040017 | 40 | 338 | 7.0 | 10.0 | 0.00 | 0.00 | 0.00 | 58 | 1014.5 |
| 20260506033017 | 41 | 338 | 7.0 | 10.0 | 0.00 | 0.00 | 0.00 | 57 | 1014.2 |
| 20260506030037 | 42 | 338 | 8.0 | 15.0 | 0.00 | 0.00 | 0.00 | 54 | 1014.3 |
| 20260506023016 | 44 | 338 | 11.0 | 16.0 | 0.00 | 0.00 | 0.00 | 51 | 1014.0 |
| 20260506020016 | 45 | 338 | 14.0 | 20.0 | 0.00 | 0.00 | 0.00 | 48 | 1013.3 |
| 20260506013037 | 47 | 315 | 16.0 | 22.0 | 0.00 | 0.00 | 0.00 | 45 | 1012.8 |
| 20260506010016 | 48 | 338 | 18.0 | 25.0 | 0.00 | 0.00 | 0.00 | 44 | 1012.5 |
| 20260506003017 | 49 | 338 | 17.0 | 23.0 | 0.00 | 0.00 | 0.00 | 42 | 1012.2 |
| 20260506000015 | 50 | 315 | 17.0 | 26.0 | 0.00 | 0.00 | 0.00 | 41 | 1012.1 |
| 20260505233016 | 51 | 315 | 18.0 | 26.0 | 0.00 | 0.00 | 0.00 | 38 | 1012.0 |
| 20260505230016 | 51 | 315 | 18.0 | 27.0 | 0.00 | 0.00 | 0.00 | 37 | 1011.6 |
| 20260505223015 | 52 | 315 | 18.0 | 27.0 | 0.00 | 0.00 | 0.00 | 37 | 1011.6 |
| 20260505220016 | 52 | 315 | 17.0 | 27.0 | 0.00 | 0.00 | 0.00 | 37 | 1011.7 |
| 20260505213017 | 52 | 315 | 17.0 | 28.0 | 0.00 | 0.00 | 0.00 | 37 | 1011.7 |
| 20260505210018 | 52 | 315 | 13.0 | 24.0 | 0.00 | 0.00 | 0.00 | 37 | 1011.9 |
| 20260505203018 | 51 | 315 | 13.0 | 21.0 | 0.00 | 0.00 | 0.00 | 38 | 1012.1 |
| 20260505200017 | 51 | 315 | 13.0 | 22.0 | 0.00 | 0.00 | 0.00 | 39 | 1012.2 |
| 20260505193017 | 51 | 315 | 14.0 | 25.0 | 0.00 | 0.00 | 0.00 | 39 | 1012.3 |
| 20260505190038 | 50 | 293 | 10.0 | 20.0 | 0.00 | 0.00 | 0.00 | 40 | 1012.2 |
| 20260505183038 | 50 | 315 | 10.0 | 19.0 | 0.00 | 0.00 | 0.00 | 44 | 1012.2 |
| 20260505180038 | 49 | 315 | 13.0 | 20.0 | 0.00 | 0.00 | 0.00 | 43 | 1012.3 |
| 20260505173017 | 48 | 315 | 13.0 | 21.0 | 0.00 | 0.00 | 0.00 | 44 | 1012.2 |
| 20260505170017 | 48 | 315 | 10.0 | 18.0 | 0.00 | 0.00 | 0.00 | 47 | 1012.1 |
| 20260505163017 | 48 | 315 | 10.0 | 17.0 | 0.00 | 0.00 | 0.00 | 49 | 1012.2 |
| 20260505153016 | 47 | 338 | 8.0 | 17.0 | 0.00 | 0.00 | 0.00 | 53 | 1012.1 |
| 20260505123016 | 38 | 270 | 1.0 | 4.0 | 0.00 | 0.00 | 0.00 | 76 | 1010.3 |
| 20260505120016 | 35 | 270 | 1.0 | 3.0 | 0.00 | 0.00 | 0.00 | 78 | 1009.6 |
| 20260505113016 | 34 | 270 | 1.0 | 3.0 | 0.00 | 0.00 | 0.00 | 79 | 1009.1 |
| 20260505100016 | 36 | 293 | 4.0 | 7.0 | 0.00 | 0.00 | 0.00 | 74 | 1008.5 |
| 20260505093017 | 35 | 293 | 1.0 | 6.0 | 0.00 | 0.00 | 0.00 | 76 | 1008.1 |
| 20260505090016 | 36 | 0.0 | 2.0 | 0.00 | 0.00 | 0.00 | 73 | 1007.9 | |
| 20260505083016 | 37 | 0.0 | 3.0 | 0.00 | 0.00 | 0.00 | 71 | 1007.8 |